#timestamp,LO_Frequency,Hit 
1498842015.9,286047004.2,N
1498842035.7,286047001.6,N
1498842055.6,286047003.4,N
1498842075.4,286047006.0,N
1498842095.2,286047005.5,N
1498842115.0,286047009.6,N
1498842116.0,286047009.6,N
1498842135.8,286047010.0,N
1498842155.6,286047011.7,N
1498842175.4,286047015.5,N
1498842195.3,286047014.8,N
1498842215.1,286047014.6,N
1498842235.8,286047015.0,N
1498842255.7,286047017.1,N
1498842275.5,286047016.1,N
1498842295.3,286047014.2,N
1498842315.2,286047014.4,N
1498842335.9,286047015.9,N
1498842355.7,286047016.0,N
1498842375.6,286047016.8,N
1498842395.4,286047014.3,N
1498842415.2,286047016.6,N
1498842435.0,286047017.6,N
1498842436.0,286047017.6,N
1498842455.8,286047018.5,N
1498842475.6,286047018.5,N
1498842495.4,286047019.9,N
1498842515.3,286047019.6,N
1498842535.1,286047019.3,N
1498842555.8,286047020.2,N
1498842575.7,286047020.2,N
1498842595.5,286047019.5,N
1498842615.3,286047021.8,N
1498842635.2,286047019.4,N
1498842655.9,286047019.8,N
1498842675.7,286047017.3,N
1498842695.6,286047017.4,N
1498842715.4,286047018.5,N
1498842735.2,286047018.0,N
1498842755.1,286047017.6,N
1498842756.0,286047017.6,N
1498842775.8,286047019.9,N
1498842795.6,286047019.2,N
1498842815.4,286047019.1,N
1498842835.3,286047020.0,N
1498842855.1,286047019.9,N
1498842875.8,286047020.1,N
1498842895.7,286047019.9,N
1498842915.5,286047018.8,N
1498842935.3,286047018.3,N
1498842955.2,286047015.8,N
1498842975.9,286047018.7,N
1498842995.7,286047015.7,N
1498843015.6,286047015.8,N
1498843035.4,286047015.9,N
1498843055.2,286047015.8,N
1498843075.1,286047016.5,N
1498843076.0,286047016.5,N
1498843095.8,286047017.1,N
1498843115.6,286047014.5,N
1498843135.4,286047014.4,N
1498843155.3,286047017.0,N
1498843175.1,286047014.2,N
1498843195.8,286047014.8,N
1498843215.7,286047012.5,N
1498843235.5,286047012.5,N
1498843255.3,286047013.0,N
1498843275.2,286047012.9,N
1498843295.9,286047012.8,N
1498843315.7,286047013.8,N
1498843335.6,286047012.6,N
1498843355.4,286047015.4,N
1498843375.2,286047015.6,N
1498843395.1,286047014.3,N
1498843396.0,286047014.3,N
1498843415.8,286047014.4,N
1498843435.6,286047013.1,N
1498843455.4,286047015.1,N
1498843475.3,286047015.2,N
1498843495.1,286047014.2,N
1498843515.8,286047015.4,N
1498843535.7,286047015.4,N
1498843555.5,286047014.4,N
1498843575.3,286047014.2,N
1498843595.2,286047016.8,N
1498843615.9,286047017.0,N
1498843635.7,286047014.4,N
1498843655.6,286047017.0,N
1498843675.4,286047016.9,N
1498843695.2,286047014.6,N
1498843715.1,286047016.9,N
1498843716.0,286047016.9,N
1498843735.8,286047013.0,N
1498843755.6,286047013.8,N
1498843775.4,286047013.7,N
1498843795.3,286047011.4,N
1498843815.1,286047013.1,N
1498843835.8,286047012.9,N
1498843855.7,286047012.8,N
1498843875.5,286047012.5,N
1498843895.3,286047015.2,N
1498843915.2,286047015.1,N
1498843935.9,286047012.8,N
1498843955.7,286047013.2,N
1498843975.6,286047012.7,N
1498843995.4,286047012.9,N
1498844015.2,286047012.9,N
1498844035.0,286047015.5,N
1498844036.0,286047015.5,N
1498844055.8,286047013.0,N
1498844075.6,286047013.1,N
1498844095.4,286047013.4,N
1498844115.3,286047015.5,N
1498844135.1,286047015.6,N
1498844155.8,286047014.8,N
1498844175.7,286047014.8,N
1498844195.5,286047015.0,N
1498844215.3,286047014.6,N
1498844235.2,286047014.9,N
1498844255.9,286047015.3,N
1498844275.7,286047014.6,N
1498844295.6,286047017.0,N
1498844315.4,286047014.3,N
1498844335.2,286047015.2,N
1498844355.0,286047014.1,N
1498844355.9,286047014.1,N
1498844375.8,286047012.7,N
1498844395.6,286047015.3,N
1498844415.4,286047015.2,N
1498844435.3,286047013.0,N
1498844455.1,286047013.7,N
1498844456.0,286047013.7,N
1498844475.8,286047015.4,N
1498844495.7,286047014.8,N
1498844515.5,286047014.4,N
1498844535.3,286047015.2,N
1498844555.2,286047013.0,N
1498844575.9,286047013.3,N
1498844595.7,286047015.5,N
1498844615.5,286047016.9,N
1498844635.4,286047016.6,N
1498844655.2,286047016.4,N
1498844675.0,286047016.5,N
1498844675.9,286047016.5,N
1498844695.8,286047018.2,N
1498844715.6,286047018.7,N
1498844735.4,286047017.6,N
1498844755.3,286047020.4,N
1498844775.1,286047019.9,N
1498844795.8,286047018.6,N
1498844815.7,286047017.4,N
1498844835.5,286047018.7,N
1498844855.3,286047016.1,N
1498844875.2,286047018.8,N
1498844895.9,286047018.3,N
1498844915.7,286047016.1,N
1498844935.6,286047017.0,N
1498844955.4,286047015.9,N
1498844975.2,286047018.0,N
1498844995.0,286047020.0,N
1498844996.0,286047020.0,N
1498845015.8,286047017.6,N
1498845035.6,286047020.1,N
1498845055.4,286047019.9,N
1498845075.3,286047017.3,N
1498845095.1,286047016.1,N
1498845115.8,286047020.0,N
1498845135.7,286047020.4,N
1498845155.5,286047020.3,N
1498845175.3,286047020.2,N
1498845195.2,286047019.3,N
1498845215.9,286047021.3,N
1498845235.7,286047021.2,N
1498845255.6,286047021.2,N
1498845275.4,286047020.7,N
1498845295.2,286047021.9,N
1498845315.0,286047021.5,N
1498845316.0,286047021.5,N
1498845335.8,286047018.9,N
1498845355.6,286047019.0,N
1498845375.4,286047021.5,N
1498845395.3,286047021.9,N
1498845415.1,286047018.9,N
1498845435.8,286047021.6,N
1498845455.7,286047020.7,N
1498845475.5,286047023.0,N
1498845495.3,286047023.5,N
1498845515.2,286047022.2,N
1498845535.9,286047022.1,N
1498845555.7,286047026.7,N
1498845575.6,286047024.7,N
1498845595.4,286047024.0,N
